• Em Portugal
  • Lista de países
  • Para 7 dias
  • Temperatura da água
  • Mapas de satélite
  • Mapa do tempo
  • Widgets de tempo
  • user-avatar
    Iniciar Sessão

    Previsão horária em Brasília

    Hoje, 19 Julho, Quinta-feira

    Tempo Temperatura Precipitação Vento Pressão Humidade
    00:00 +17°C° 0 mm 2 m/s 668 mmHg 62%
    01:00 +17°C° 0 mm 2 m/s 668 mmHg 61%
    02:00 +16°C° 0 mm 2 m/s 667 mmHg 60%
    03:00 +15°C° 0 mm 2 m/s 667 mmHg 61%
    04:00 +15°C° 0 mm 2 m/s 667 mmHg 60%
    05:00 +15°C° 0 mm 2 m/s 667 mmHg 60%
    06:00 +14°C° 0 mm 2 m/s 667 mmHg 60%
    07:00 +16°C° 0 mm 3 m/s 668 mmHg 56%
    08:00 +18°C° 0 mm 4 m/s 668 mmHg 53%
    09:00 +20°C° 0 mm 5 m/s 669 mmHg 49%
    10:00 +22°C° 0 mm 5 m/s 669 mmHg 45%
    11:00 +25°C° 0 mm 4 m/s 670 mmHg 40%
    12:00 +26°C° 0 mm 4 m/s 670 mmHg 36%
    13:00 +27°C° 0 mm 4 m/s 669 mmHg 33%
    14:00 +28°C° 0 mm 3 m/s 669 mmHg 31%
    15:00 +28°C° 0 mm 3 m/s 669 mmHg 29%
    16:00 +26°C° 0 mm 3 m/s 668 mmHg 33%
    17:00 +25°C° 0 mm 2 m/s 668 mmHg 37%
    18:00 +23°C° 0 mm 2 m/s 667 mmHg 41%
    19:00 +21°C° 0 mm 2 m/s 667 mmHg 43%
    20:00 +20°C° 0 mm 2 m/s 667 mmHg 45%
    21:00 +19°C° 0 mm 2 m/s 668 mmHg 48%
    22:00 +18°C° 0 mm 2 m/s 668 mmHg 50%
    23:00 +18°C° 0 mm 2 m/s 668 mmHg 51%

    Amanhã, 20 Julho, Sexta-feira

    Tempo Temperatura Precipitação Vento Pressão Humidade
    00:00 +18°C° 0 mm 2 m/s 668 mmHg 53%
    01:00 +17°C° 0 mm 2 m/s 667 mmHg 55%
    02:00 +17°C° 0 mm 2 m/s 667 mmHg 58%
    03:00 +16°C° 0 mm 2 m/s 667 mmHg 61%
    04:00 +16°C° 0 mm 2 m/s 667 mmHg 63%
    05:00 +15°C° 0 mm 2 m/s 667 mmHg 65%
    06:00 +15°C° 0 mm 2 m/s 667 mmHg 66%
    07:00 +17°C° 0 mm 3 m/s 668 mmHg 61%
    08:00 +18°C° 0 mm 4 m/s 668 mmHg 55%
    09:00 +20°C° 0 mm 4 m/s 669 mmHg 49%
    10:00 +22°C° 0 mm 4 m/s 670 mmHg 43%
    11:00 +25°C° 0 mm 4 m/s 670 mmHg 37%
    12:00 +27°C° 0 mm 3 m/s 670 mmHg 31%
    13:00 +28°C° 0 mm 3 m/s 670 mmHg 29%
    14:00 +28°C° 0 mm 3 m/s 669 mmHg 27%
    15:00 +29°C° 0 mm 3 m/s 668 mmHg 25%
    16:00 +27°C° 0 mm 2 m/s 668 mmHg 29%
    17:00 +25°C° 0 mm 2 m/s 668 mmHg 33%
    18:00 +23°C° 0 mm 2 m/s 667 mmHg 36%
    19:00 +21°C° 0 mm 2 m/s 667 mmHg 39%
    20:00 +20°C° 0 mm 2 m/s 668 mmHg 41%
    21:00 +19°C° 0 mm 2 m/s 668 mmHg 43%
    22:00 +19°C° 0 mm 2 m/s 668 mmHg 44%
    23:00 +18°C° 0 mm 2 m/s 668 mmHg 45%

    Depois de amanhã, 21 Julho, Sábado

    Tempo Temperatura Precipitação Vento Pressão Humidade
    00:00 +18°C° 0 mm 2 m/s 668 mmHg 46%
    01:00 +17°C° 0 mm 2 m/s 668 mmHg 48%
    02:00 +17°C° 0 mm 2 m/s 668 mmHg 49%
    03:00 +17°C° 0 mm 2 m/s 667 mmHg 51%
    04:00 +16°C° 0 mm 2 m/s 667 mmHg 56%
    05:00 +16°C° 0 mm 2 m/s 667 mmHg 62%
    06:00 +16°C° 0 mm 2 m/s 667 mmHg 68%
    07:00 +17°C° 0 mm 3 m/s 668 mmHg 65%
    08:00 +19°C° 0 mm 3 m/s 669 mmHg 61%
    09:00 +21°C° 0 mm 4 m/s 670 mmHg 58%
    10:00 +22°C° 0 mm 4 m/s 670 mmHg 51%
    11:00 +25°C° 0 mm 3 m/s 670 mmHg 44%
    12:00 +27°C° 0 mm 3 m/s 670 mmHg 36%
    13:00 +28°C° 0 mm 3 m/s 670 mmHg 34%
    14:00 +28°C° 0 mm 3 m/s 669 mmHg 31%
    15:00 +29°C° 0 mm 3 m/s 668 mmHg 29%
    16:00 +27°C° 0 mm 3 m/s 668 mmHg 33%
    17:00 +25°C° 0 mm 2 m/s 667 mmHg 36%
    18:00 +24°C° 0 mm 2 m/s 667 mmHg 40%
    19:00 +23°C° 0 mm 2 m/s 667 mmHg 43%
    20:00 +21°C° 0 mm 2 m/s 667 mmHg 46%
    21:00 +19°C° 0 mm 2 m/s 667 mmHg 49%
    22:00 +19°C° 0 mm 2 m/s 667 mmHg 50%
    23:00 +19°C° 0 mm 2 m/s 667 mmHg 51%

    22 Julho, Domingo

    Tempo Temperatura Precipitação Vento Pressão Humidade
    00:00 +18°C° 0 mm 2 m/s 667 mmHg 53%
    01:00 +17°C° 0 mm 2 m/s 667 mmHg 54%
    02:00 +17°C° 0 mm 2 m/s 666 mmHg 55%
    03:00 +16°C° 0 mm 2 m/s 666 mmHg 55%
    04:00 +16°C° 0 mm 2 m/s 666 mmHg 56%
    05:00 +15°C° 0 mm 2 m/s 666 mmHg 57%
    06:00 +15°C° 0 mm 2 m/s 666 mmHg 58%
    07:00 +17°C° 0 mm 3 m/s 667 mmHg 54%
    08:00 +19°C° 0 mm 4 m/s 668 mmHg 51%
    09:00 +21°C° 0 mm 4 m/s 670 mmHg 48%
    10:00 +22°C° 0 mm 4 m/s 670 mmHg 43%
    11:00 +25°C° 0 mm 4 m/s 670 mmHg 38%
    12:00 +27°C° 0 mm 4 m/s 670 mmHg 33%
    13:00 +27°C° 0 mm 4 m/s 669 mmHg 32%
    14:00 +28°C° 0 mm 4 m/s 669 mmHg 30%
    15:00 +28°C° 0 mm 3 m/s 668 mmHg 28%
    16:00 +27°C° 0 mm 3 m/s 668 mmHg 32%
    17:00 +25°C° 0 mm 2 m/s 668 mmHg 35%
    18:00 +23°C° 0 mm 2 m/s 668 mmHg 39%
    19:00 +21°C° 0 mm 2 m/s 668 mmHg 41%
    20:00 +20°C° 0 mm 2 m/s 668 mmHg 44%
    21:00 +19°C° 0 mm 2 m/s 669 mmHg 46%
    22:00 +19°C° 0 mm 2 m/s 669 mmHg 49%
    23:00 +19°C° 0 mm 2 m/s 669 mmHg 51%

    23 Julho, Segunda-feira

    Tempo Temperatura Precipitação Vento Pressão Humidade
    00:00 +19°C° 0 mm 3 m/s 669 mmHg 54%
    01:00 +18°C° 0 mm 2 m/s 668 mmHg 55%
    02:00 +17°C° 0 mm 2 m/s 668 mmHg 57%
    03:00 +17°C° 0 mm 2 m/s 668 mmHg 59%
    04:00 +17°C° 0 mm 3 m/s 668 mmHg 56%
    05:00 +16°C° 0 mm 3 m/s 668 mmHg 53%
    06:00 +16°C° 0 mm 3 m/s 668 mmHg 50%
    07:00 +17°C° 0 mm 4 m/s 669 mmHg 48%
    08:00 +19°C° 0 mm 4 m/s 670 mmHg 45%
    09:00 +20°C° 0 mm 5 m/s 671 mmHg 43%
    10:00 +22°C° 0 mm 5 m/s 671 mmHg 38%
    11:00 +25°C° 0 mm 4 m/s 671 mmHg 32%
    12:00 +27°C° 0 mm 4 m/s 671 mmHg 26%
    13:00 +27°C° 0 mm 4 m/s 671 mmHg 25%
    14:00 +28°C° 0 mm 3 m/s 670 mmHg 23%
    15:00 +28°C° 0 mm 3 m/s 670 mmHg 21%
    16:00 +26°C° 0 mm 3 m/s 669 mmHg 23%
    17:00 +24°C° 0 mm 2 m/s 669 mmHg 26%
    18:00 +23°C° 0 mm 2 m/s 669 mmHg 29%
    19:00 +21°C° 0 mm 2 m/s 669 mmHg 30%
    20:00 +20°C° 0 mm 2 m/s 669 mmHg 32%
    21:00 +19°C° 0 mm 2 m/s 669 mmHg 34%
    22:00 +18°C° 0 mm 2 m/s 669 mmHg 38%
    23:00 +18°C° 0 mm 2 m/s 669 mmHg 42%

    24 Julho, Terça-feira

    Tempo Temperatura Precipitação Vento Pressão Humidade
    00:00 +17°C° 0 mm 2 m/s 669 mmHg 46%
    01:00 +17°C° 0 mm 2 m/s 669 mmHg 51%
    02:00 +17°C° 0 mm 2 m/s 668 mmHg 56%
    03:00 +16°C° 0 mm 2 m/s 668 mmHg 60%
    04:00 +16°C° 0 mm 2 m/s 668 mmHg 62%
    05:00 +16°C° 0 mm 3 m/s 668 mmHg 63%
    06:00 +14°C° 0 mm 3 m/s 669 mmHg 64%
    07:00 +17°C° 0 mm 3 m/s 669 mmHg 61%
    08:00 +18°C° 0 mm 4 m/s 670 mmHg 57%
    09:00 +20°C° 0 mm 5 m/s 671 mmHg 54%
    10:00 +22°C° 0 mm 4 m/s 671 mmHg 48%
    11:00 +23°C° 0 mm 4 m/s 671 mmHg 43%
    12:00 +26°C° 0 mm 4 m/s 671 mmHg 37%
    13:00 +26°C° 0 mm 4 m/s 671 mmHg 35%
    14:00 +27°C° 0 mm 4 m/s 670 mmHg 33%
    15:00 +27°C° 0 mm 3 m/s 669 mmHg 31%
    16:00 +26°C° 0 mm 3 m/s 669 mmHg 35%
    17:00 +24°C° 0 mm 2 m/s 669 mmHg 38%
    18:00 +23°C° 0 mm 2 m/s 669 mmHg 42%
    19:00 +21°C° 0 mm 2 m/s 669 mmHg 45%
    20:00 +20°C° 0 mm 2 m/s 669 mmHg 48%
    21:00 +19°C° 0 mm 2 m/s 670 mmHg 51%
    22:00 +19°C° 0 mm 2 m/s 670 mmHg 54%
    23:00 +18°C° 0 mm 2 m/s 669 mmHg 57%
    Mostrar mais